Location: Newark
(43.6583°N, 1.6617°E)
Time: 16:23:45
(UTC+00:00)

Tiros 1 - Pass Details

Date: 03 September 2019
Orbit: 630 x 664 km, 48.4° (Epoch: 22 September)

Event Time Altitude Azimuth Distance (km) Brightness Sun altitude
Rises 22:05:16 0° 281° (W) 2,919 11.1 -33.5°
Reaches altitude 10° 22:07:41 10° 287° (WNW) 2,010 10.2 -33.7°
Enters shadow 22:09:17 20° 297° (WNW) 1,445 9.4 -33.8°
